Simultaneous Nadir Overpasses (SNOs) Predictions

Prediction of SNOs over PacNW region [( 10.00, 139.50) to ( 22.70, 165.60)] between AQUA and NPP Satellites:

Table of predicted SNOs over PacNW region for the next 30.0 days since TLE Epoch: 3/23/2013
Index Date (AQUA) Time (AQUA) AQUA Lat,Lon Date (NPP) Time (NPP) NPP Lat,Lon Distance(km) Time Diff (sec)
1 03/26/2013 15:10:54 21.43, 159.49 03/26/2013 15:10:33 21.96, 156.81 283.06 21
2 04/03/2013 16:00:14 22.59, 147.37 04/03/2013 16:01:03 23.24, 144.43 309.46 49
3 04/11/2013 15:11:27 20.85, 159.29 04/11/2013 15:10:57 21.37, 156.64 281.55 30
4 04/19/2013 16:00:31 22.61, 147.34 04/19/2013 16:01:15 23.27, 144.42 307.95 44




NCC Satellite Simultaneous Nadir Overpasses (SNOs) Prediction Service
